Benson, United Kingdom

7:10 PM BST on June 27, 2017 (GMT +0100)
Benson Air Base

Weather History for EGUB - December, 2013

Change the Weather History Date:

Wednesday, December 25, 2013

  Actual Average Record
Temperature  
Mean Temperature 38 °F -  
Max Temperature 42 °F 44 °F 59 °F (2015)
Min Temperature 34 °F 34 °F 14 °F (2010)
Degree Days  
Heating Degree Days 27    
Moisture  
Dew Point 35 °F    
Average Humidity 87    
Maximum Humidity 93    
Minimum Humidity 72    
Precipitation  
Precipitation 0.16 in - - ()
Sea Level Pressure  
Sea Level Pressure 29.06 in    
Wind  
Wind Speed 9 mph ()    
Max Wind Speed 13 mph    
Max Gust Speed -    
Visibility 10.7 miles    
Events      
Averages and records for this station are not official NWS values.
T = Trace of Precipitation, MM = Missing Value Source: Averaged Metar Reports

Daily Weather History Graph

Daily Weather History Graph

Search for Another Location

Airport or City:

Trip Planner

Search our weather history database for the weather conditions in past years. The results will help you decide how hot, cold, wet, or windy it might be!

Date:

Astronomy

Dec. 25, 2013 Rise Set
Actual Time 8:09 AM GMT 3:59 PM GMT
Civil Twilight 7:29 AM GMT 4:39 PM GMT
Nautical Twilight 6:46 AM GMT 5:22 PM GMT
Astronomical Twilight 6:05 AM GMT 6:03 PM GMT
Moon No Moon Rise 11:34 AM GMT (12/25)
Length of Visible Light 9h 10m
Length of Day
7h 49m
Waning Gibbous, 51% of the Moon is Illuminated
Dec 25
Waning Gibbous
Dec 25
Last Quarter
Jan 1
New
Jan 8
First Quarter
Jan 16
Full

Hourly Weather History & Observations

Time (GMT) Temp. Windchill Dew Point Humidity Pressure Visibility Wind Dir Wind Speed Gust Speed Precip Events Conditions
12:00 AM 40 °F - 37 °F 87% 28.95 in 19 mi South 9.2 mph - -   Scattered Clouds
12:50 AM 37.4 °F 29.8 °F 35.6 °F 93% 28.91 in 6.2 mi SSE 11.5 mph - N/A   Partly Cloudy
1:00 AM 38 °F - 36 °F 89% 28.94 in 18 mi SSE 11.5 mph - -   Scattered Clouds
1:50 AM 35.6 °F 28.0 °F 33.8 °F 93% 28.91 in 6.2 mi SSE 10.4 mph - N/A   Unknown
2:00 AM 36 °F - 34 °F 87% 28.95 in 17 mi SSE 10.4 mph - -  
2:50 AM 35.6 °F 29.2 °F 33.8 °F 93% 28.94 in 6.2 mi SSE 8.1 mph - N/A   Unknown
3:00 AM 35 °F - 33 °F 91% 28.96 in 17 mi SSE 8.1 mph - -  
3:50 AM 35.6 °F 28.6 °F 32.0 °F 87% 28.94 in 6.2 mi SSE 9.2 mph - N/A   Unknown
4:00 AM 35 °F - 33 °F 87% 28.97 in 17 mi SSE 9.2 mph - -  
4:50 AM 35.6 °F 28.0 °F 32.0 °F 87% 28.94 in 6.2 mi SSE 10.4 mph - N/A   Unknown
5:00 AM 35 °F - 32 °F 86% 28.98 in 17 mi SSE 10.4 mph - -  
5:50 AM 35.6 °F 28.0 °F 33.8 °F 93% 28.97 in 6.2 mi SSE 10.4 mph - N/A   Unknown
6:00 AM 36 °F - 33 °F 85% 28.99 in 17 mi SSE 10.4 mph - -  
6:50 AM 35.6 °F 28.6 °F 33.8 °F 93% 29.00 in 6.2 mi SSE 9.2 mph - N/A   Unknown
7:00 AM 36 °F - 33 °F 84% 29.02 in 17 mi SSE 9.2 mph - -  
7:50 AM 35.6 °F 28.6 °F 33.8 °F 93% 29.00 in 6.2 mi SSE 9.2 mph - N/A   Unknown
8:00 AM 36 °F - 34 °F 87% 29.03 in 16 mi SSE 9.2 mph - -  
8:50 AM 35.6 °F 27.5 °F 33.8 °F 93% 29.03 in 6.2 mi SSE 11.5 mph - N/A   Unknown
9:00 AM 36 °F - 33 °F 87% 29.05 in 16 mi SSE 11.5 mph - -  
9:50 AM 37.4 °F 30.8 °F 35.6 °F 93% 29.06 in 6.2 mi SSE 9.2 mph - N/A   Unknown
10:00 AM 38 °F - 35 °F 84% 29.07 in 16 mi SSE 9.2 mph - -  
10:50 AM 41.0 °F 35.8 °F 35.6 °F 81% 29.06 in 6.2 mi South 8.1 mph - N/A   Unknown
11:00 AM 41 °F - 36 °F 75% 29.08 in 17 mi South 8.1 mph - -  
11:50 AM 39.2 °F 32.0 °F 35.6 °F 87% 29.06 in 6.2 mi SSE 11.5 mph - N/A   Scattered Clouds
12:00 PM 40 °F - 36 °F 78% 29.08 in 17 mi SSE 11.5 mph - -   Partly Cloudy
12:50 PM 41.0 °F 33.9 °F 35.6 °F 81% 29.06 in 6.2 mi South 12.7 mph - N/A   Unknown
1:00 PM 42 °F - 36 °F 72% 29.07 in 19 mi South 12.7 mph - -  
1:50 PM 41.0 °F 34.7 °F 35.6 °F 81% 29.06 in 6.2 mi South 10.4 mph - N/A   Unknown
2:00 PM 41 °F - 36 °F 77% 29.08 in 19 mi South 10.4 mph - -  
2:50 PM 41.0 °F 35.8 °F 35.6 °F 81% 29.06 in 6.2 mi SE 8.1 mph - N/A   Unknown
3:00 PM 40 °F - 36 °F 81% 29.09 in 17 mi SE 8.1 mph - -  
3:50 PM 41.0 °F 35.8 °F 35.6 °F 81% 29.09 in 6.2 mi SE 8.1 mph - N/A   Unknown
4:00 PM 40 °F - 36 °F 79% 29.12 in 17 mi SE 8.1 mph - -  
4:50 PM 39.2 °F 33.0 °F 35.6 °F 87% 29.12 in 6.2 mi East 9.2 mph - N/A   Partly Cloudy
5:00 PM 39 °F - 35 °F 81% 29.13 in 15 mi East 9.2 mph - -   Scattered Clouds
5:50 PM 39.2 °F 33.0 °F 35.6 °F 87% 29.12 in 6.2 mi ESE 9.2 mph - N/A   Scattered Clouds
6:00 PM 39 °F - 36 °F 84% 29.13 in 14 mi ESE 9.2 mph - -   Partly Cloudy
6:50 PM 39.2 °F 33.6 °F 37.4 °F 93% 29.12 in 6.2 mi East 8.1 mph - N/A   Partly Cloudy
7:00 PM 39 °F - 36 °F 87% 29.14 in 14 mi East 8.1 mph - -   Scattered Clouds
7:50 PM 39.2 °F 35.9 °F 37.4 °F 93% 29.12 in 6.2 mi South 4.6 mph - N/A   Mostly Cloudy
8:00 PM 39 °F - 36 °F 87% 29.15 in 14 mi South 4.6 mph - -   Mostly Cloudy
8:50 PM 37.4 °F - 35.6 °F 93% 29.15 in 6.2 mi West 2.3 mph - N/A   Overcast
9:00 PM 38 °F - 36 °F 89% 29.16 in 7 mi West 2.3 mph - -   Overcast
9:50 PM 39.2 °F 34.2 °F 37.4 °F 93% 29.15 in 6.2 mi SSE 6.9 mph - N/A   Mostly Cloudy
10:00 PM 40 °F - 38 °F 88% 29.18 in 7 mi SSE 6.9 mph - -   Scattered Clouds
10:50 PM 39.2 °F 33.6 °F 35.6 °F 87% 29.15 in 3.7 mi East 8.1 mph - N/A   Mostly Cloudy
11:00 PM 38 °F - 36 °F 90% 29.18 in 4 mi East 8.1 mph - -   Mostly Cloudy
11:50 PM 35.6 °F - 33.8 °F 93% 29.15 in 6.2 mi NE 1.2 mph - N/A   Mostly Cloudy